Regional Weather Roundup
Issued by NWS Sioux Falls, SD

Home | Current Version | Previous Version | Text Only | Print | Product List | Glossary On
Versions: 1 2 3 4 5 6 7 8 9 10 11 12 13 14 15 16 17 18 19 20 21 22 23 24 25 26 27 28 29 30 31 32 33 34 35 36 37 38 39 40 41 42 43 44 45 46 47 48 49 50
000
ASUS43 KFSD 261410
RWRFSD

WEATHER ROUNDUP FOR SE SOUTH DAKOTA/SW MINNESOTA/NW IOWA
NATIONAL WEATHER SERVICE SIOUX FALLS SD
900 AM CDT THU MAR 26 2015

NOTE: "FAIR" INDICATES FEW OR NO CLOUDS BELOW 12,000 FEET WITH NO
SIGNIFICANT WEATHER AND OR OBSTRUCTIONS TO VISIBILITY.


SDZ038>040-050-052>070-261500-
SOUTHEAST SOUTH DAKOTA

CITY           SKY/WX    TMP DP  RH WIND       PRES   REMARKS
CHAMBERLAIN    PTSUNNY   24  20  85 CALM      30.18F
HURON          MOSUNNY   24  19  81 NW6       30.21S WCI  17
MADISON        FAIR      27  27 100 NW9       30.17S WCI  17
MITCHELL       SUNNY     26  20  77 NW3       30.22S
SIOUX FALLS    MOSUNNY   30  21  69 NW8       30.18S WCI  22
WINNER         CLOUDY    30  22  72 SE5       30.15F WCI  25
YANKTON        SUNNY     28  21  74 NW5       30.23S WCI  23
$$

MNZ071-072-080-081-089-090-097-098-261500-
SOUTHWEST MINNESOTA

CITY           SKY/WX    TMP DP  RH WIND       PRES   REMARKS
FAIRMONT       SUNNY     32  21  64 NW18      30.13R WCI  20
JACKSON        SUNNY     32  27  80 NW14G20   30.15S WCI  22
LUVERNE        SUNNY     32  25  74 NW7       30.17F WCI  26
MARSHALL       CLOUDY    28  19  69 N12       30.19S WCI  18
MONTEVIDEO     SUNNY     30  25  80 N16       30.20S WCI  19
PIPESTONE      SUNNY     28  25  86 N7        30.14F WCI  21
REDWOOD FALLS  SUNNY     29  20  69 NW12      30.17R WCI  19
TRACY          SUNNY     30  24  79 NW13      30.17S WCI  20
WINDOM         SUNNY     30  25  80 NW17      30.15S WCI  18
WORTHINGTON    CLOUDY    30  23  74 NW10      30.17S WCI  21
$$

IAZ001>003-012>014-020>022-031-032-NEZ013-014-SDZ071-261500-
NORTHWEST IOWA

CITY           SKY/WX    TMP DP  RH WIND       PRES   REMARKS
CHEROKEE       SUNNY     32  25  75 NW8       30.19R WCI  25
DENISON        SUNNY     28  27  93 W6        30.18S WCI  22
ESTHERVILLE    SUNNY     30  25  81 NW14      30.15R WCI  19
LE MARS        SUNNY     30  25  80 NW6       30.21S WCI  24
ORANGE CITY    SUNNY     30  25  80 NW7       30.18S WCI  23
SHELDON        SUNNY     30  27  86 NW8       30.16S WCI  23
SIOUX CITY     SUNNY     31  22  69 CALM      30.22R
SPENCER        SUNNY     32  25  75 NW9       30.17R WCI  24
STORM LAKE     SUNNY     30  25  80 NW12      30.18R WCI  21
$$

ABBREVIATIONS USED IN REMARKS
   TC - TEMPERATURE IN CELSIUS
  WCI - WIND CHILL INDEX
   HX - HEAT INDEX
  VSB - VISIBILITY




USA.gov is the U.S. government's official web portal to all federal, state and local government web resources and services.